Details From FOOL - Leon M Ba
To FKYS - YAOUNDE NSIMALEN
Flight Number -
Tags generated
Created
Modified
Stats Distance 234 nm / 434 km
Max Altitude 29,600 ft / 9,022 m
Waypoints 4
Social Downloads 0
Likes 0
Share VATSIM

Download

Looking for another format? Having issues loading an existing format? Contact us
Advertisement - Login to hide

Notes

Basic altitude profile: - Ascent Rate: 2500ft/min - Ascent Speed: 250kts - Cruise Altitude: 35000ft - Cruise Speed: 420kts - Descent Rate: 1500ft/min - Descent Speed: 250kts Options: - Use NATs: yes - Use PACOTS: yes - Use low airways: no - Use high airways: yes

Route

FOOL ARASI UH455 ETNOM FKYS

ID Type Via Altitude (ft/m) Position (lat/lon) Dist (leg/tot) Name
O FOOL APT - 0 / 0 0.45862 / 9.41225 - / 0 nm Leon M Ba
ARASI FIX - 29,600 / 9,022 1.80056 / 10.27750 95 / 95 nm
ETNOM FIX UH455 (AWY-HI) 19,000 / 5,791 2.48750 / 10.73306 49 / 145 nm
O FKYS APT - 0 / 0 3.72255 / 11.55327 89 / 234 nm YAOUNDE NSIMALEN

Altitude Profile

Advertisement - Login to hide

Weather


0- 5 10 15 20 25 30 35+ Temperature / °C

Clouds and Precipitation
Forecast for 2018-08-19 18:00 UTC. Updated an hour ago

Ground ~20,000 ft ~40,000 ft Winds

FOOL

Details ICAO FOOL (LBV)
Name Libreville Airport
Region Gabon
Timezone Africa/Libreville (UTC+1.0)
Stats Elevation 39 ft / 12 m (AMSL)
Location 0.458442° 9.412330°
Runways 1
Magnetic Variation 1.847° W

METAR

FOOL 191630Z 23007KT 210V270 9999 SCT038 OVC050 26/21 Q1013 NOSIG

Decode

TAF

TAF FOOL 191100Z 1912/2018 20009KT 9999 SCT008 BKN033 PROB30 2004/2007 4000 DZ BKN008

Decode

Departure Runways

ID Width Length Bearing (true/mag) Surface Threshold Overrun Markings Lighting
16 148 ft / 45 m 9,852 ft / 3,003 m 154.26° / 156.11° ASPHALT 0 ft / 0 m 213 ft / 65 m PREC-APP EDGE THRESHOLD MALS
34 148 ft / 45 m 9,852 ft / 3,003 m 334.26° / 336.11° ASPHALT 0 ft / 0 m 210 ft / 64 m PREC-APP EDGE THRESHOLD

FKYS

Details ICAO FKYS (NSI)
Name YAOUNDE NSIMALEN
Region Cameroon
Timezone Africa/Douala (UTC+1.0)
Stats Elevation 2,278 ft / 694 m (AMSL)
Location 3.722550° 11.553300°
Runways 1
Magnetic Variation 0.608° W

METAR

FKYS 191600Z /////KT 9999 BKN020 FEW023TCU 25/21 Q1016 NOSIG

Decode

TAF

TAF FKYS 191100Z 1912/2012 VRB05KT 9999 BKN006 BECMG 1908/1910 BKN016 BECMG 1918/1922 BKN006 PROB30 TEMPO 1920/2003 4000 TSRA BKN006 SCT013CB

Decode

Destination Runways

ID Width Length Bearing (true/mag) Surface Threshold Overrun Markings Lighting
01 148 ft / 45 m 11,220 ft / 3,420 m 9.87° / 10.48° ASPHALT 0 ft / 0 m 200 ft / 61 m APP EDGE THRESHOLD
19 148 ft / 45 m 11,220 ft / 3,420 m 189.87° / 190.48° ASPHALT 0 ft / 0 m 200 ft / 61 m APP EDGE THRESHOLD MALS

Popular Alternatives